Regional Weather Roundup
Issued by NWS

Home | Current Version | Previous Version | Graphics & Text | Print | Product List | Glossary Off
Versions: 1 2 3 4 5 6 7 8 9 10 11 12 13 14 15 16 17 18 19 20 21 22 23 24 25 26 27 28 29 30 31 32 33 34 35 36 37 38 39 40 41 42 43 44 45 46 47 48 49 50

000
ASUS43 KTOP 130908
RWRKS

WEATHER ROUNDUP FOR KANSAS
NATIONAL WEATHER SERVICE GOODLAND KS
400 AM CDT SUN JUL 13 2014

NOTE:  "FAIR" INDICATES FEW OR NO CLOUDS BELOW 12,000 FEET WITH NO
SIGNIFICANT WEATHER AND/OR OBSTRUCTIONS TO VISIBILITY.

KSZ001>006-013>018-027>032-041>047-131000-
NORTHWEST KANSAS

CITY           SKY/WX    TMP DP  RH WIND       PRES   REMARKS
GOODLAND       CLOUDY    70  62  76 SW12      30.25R
HAYS           CLOUDY    72  63  73 N10       30.08R
HILL CITY      MOCLDY    70  66  87 N8        30.13R
RUSSELL        CLOUDY    73  68  84 N14       30.05R
$$

KSZ061>065-074>080-084>089-131000-
SOUTHWEST KANSAS

CITY           SKY/WX    TMP DP  RH WIND       PRES   REMARKS
DODGE CITY     MOCLDY    73  66  78 NW20G30   30.13R
ELKHART          N/A     69  59  70 NW8         N/A
GARDEN CITY    CLOUDY    68  65  90 N16G28    30.15F
GREAT BEND     MOCLDY    73  68  83 N16       30.03R
LIBERAL        MOCLDY    73  61  64 NW16      30.16R
PRATT          CLEAR     70  63  78 SW3       30.05R
$$

KSZ066>073-081>083-090>101-131000-
SOUTHEAST KANSAS

CITY           SKY/WX    TMP DP  RH WIND       PRES   REMARKS
CHANUTE        CLEAR     71  62  73 S8        30.01S
COFFEYVILLE    CLEAR     74  63  68 S9        30.01R
HUTCHINSON     MOCLDY    77  58  51 S9        29.99S
MEDICINE LODGE   N/A     74  56  53 W5        30.01R
NEWTON         MOCLDY    75  54  46 S9        30.03F
PARSONS        CLEAR     73  62  68 S3        30.03S
WICHITA INTL   MOCLDY    72  59  63 S7        30.00S
WICHITA JABRA  PTCLDY    77  58  51 SW14      29.99F
WICHITA MCCONL PTCLDY    72  60  64 S10       30.01S
WINFIELD       CLEAR     71  60  68 S6        30.03S
$$

KSZ007>012-019>026-033>040-048>060-102>105-131000-
NORTHEAST KANSAS

CITY           SKY/WX    TMP DP  RH WIND       PRES   REMARKS
CONCORDIA      CLOUDY    70  69  97 NE8       30.04R
EMPORIA        CLOUDY    77  59  53 W8        30.01S
LAWRENCE       LGT RAIN  77  71  82 N10       30.03R
MANHATTAN      CLOUDY    77  72  84 NE13      30.01S
MARYSVILLE     LGT RAIN  70  70 100 NE6       30.03F
OLATHE IND     CLOUDY    77  67  71 W5        30.03F
OLATHE EXE     CLOUDY    78  67  68 W3        30.02R
SALINA         MOCLDY    78  70  76 NE13      30.01R
TOPEKA BILLARD CLOUDY    77  74  90 NE9G18    30.02S
TOPEKA FORBES  LGT RAIN  75  72  90 N12       30.02S
$$



USA.gov is the U.S. government's official web portal to all federal, state and local government web resources and services.